Time,TemperatureF,DewpointF,PressureIn,WindDirection,WindDirectionDegrees,WindSpeedMPH,WindSpeedGustMPH,Humidity,HourlyPrecipIn,Conditions,Clouds,dailyrainin,SolarRadiationWatts/m^2,SoftwareType,DateUTC
2016-07-27 00:02:00,75.6,73.0,30.04,West,259,0.0,0.0,92,0.00,,,0.00,0.00,Weather logger V3.0.,2016-07-27 04:02:00,
2016-07-27 00:07:00,75.2,72.7,30.04,West,259,0.0,0.0,92,0.00,,,0.00,0.00,Weather logger V3.0.,2016-07-27 04:07:00,
2016-07-27 00:12:00,75.0,72.9,30.04,West,259,0.0,0.0,93,0.00,,,0.00,0.00,Weather logger V3.0.,2016-07-27 04:12:00,
2016-07-27 00:18:00,74.8,72.7,30.04,SW,233,0.0,0.0,93,0.00,,,0.00,0.00,Weather logger V3.0.,2016-07-27 04:18:00,
2016-07-27 00:23:00,74.7,72.5,30.04,SW,230,0.0,0.0,93,0.00,,,0.00,0.00,Weather logger V3.0.,2016-07-27 04:23:00,
2016-07-27 00:28:00,74.7,72.1,30.05,SW,218,0.0,0.0,92,0.00,,,0.00,0.00,Weather logger V3.0.,2016-07-27 04:28:00,
2016-07-27 00:33:00,74.7,72.1,30.05,South,180,0.0,0.0,92,0.00,,,0.00,0.00,Weather logger V3.0.,2016-07-27 04:33:00,
2016-07-27 00:38:00,74.7,72.1,30.05,South,186,0.0,0.0,92,0.00,,,0.00,0.00,Weather logger V3.0.,2016-07-27 04:38:00,
2016-07-27 00:43:00,74.7,72.1,30.05,SW,217,0.0,0.0,92,0.00,,,0.00,0.00,Weather logger V3.0.,2016-07-27 04:43:00,
2016-07-27 00:48:00,74.7,72.1,30.05,SW,217,0.0,0.0,92,0.00,,,0.00,0.00,Weather logger V3.0.,2016-07-27 04:48:00,
2016-07-27 00:53:00,74.7,72.1,30.04,SW,217,0.0,0.0,92,0.00,,,0.00,0.00,Weather logger V3.0.,2016-07-27 04:53:00,
2016-07-27 00:58:00,74.7,72.1,30.04,SW,218,0.0,0.0,92,0.00,,,0.00,0.00,Weather logger V3.0.,2016-07-27 04:58:00,
2016-07-27 01:03:00,74.5,72.1,30.04,SW,218,0.0,0.0,92,0.00,,,0.00,0.00,Weather logger V3.0.,2016-07-27 05:03:00,
2016-07-27 01:08:00,74.3,72.0,30.04,SW,218,0.0,0.0,92,0.00,,,0.00,0.00,Weather logger V3.0.,2016-07-27 05:08:00,
2016-07-27 01:13:00,74.1,72.0,30.04,SW,218,0.0,0.0,93,0.00,,,0.00,0.00,Weather logger V3.0.,2016-07-27 05:13:00,
2016-07-27 01:18:00,73.9,71.8,30.03,SW,217,0.0,0.0,93,0.00,,,0.00,0.00,Weather logger V3.0.,2016-07-27 05:18:00,
2016-07-27 01:23:00,73.8,71.6,30.04,SW,218,0.0,0.0,93,0.00,,,0.00,0.00,Weather logger V3.0.,2016-07-27 05:23:00,
2016-07-27 01:28:00,73.8,71.6,30.03,SW,217,0.0,0.0,93,0.00,,,0.00,0.00,Weather logger V3.0.,2016-07-27 05:28:00,
2016-07-27 01:34:00,73.6,71.4,30.04,South,189,0.0,0.0,93,0.00,,,0.00,0.00,Weather logger V3.0.,2016-07-27 05:34:00,
2016-07-27 01:39:00,73.6,71.4,30.03,SSW,205,0.0,0.0,93,0.00,,,0.00,0.00,Weather logger V3.0.,2016-07-27 05:39:00,
2016-07-27 01:44:00,73.6,71.4,30.04,SSW,209,0.0,0.0,93,0.00,,,0.00,0.00,Weather logger V3.0.,2016-07-27 05:44:00,
2016-07-27 01:49:00,73.6,71.4,30.03,SSW,211,0.0,0.0,93,0.00,,,0.00,0.00,Weather logger V3.0.,2016-07-27 05:49:00,
2016-07-27 01:54:00,73.6,70.9,30.04,SW,233,0.0,0.0,91,0.00,,,0.00,0.00,Weather logger V3.0.,2016-07-27 05:54:00,
2016-07-27 01:59:00,73.4,71.1,30.03,SW,233,0.0,0.0,92,0.00,,,0.00,0.00,Weather logger V3.0.,2016-07-27 05:59:00,
2016-07-27 02:04:00,73.2,70.9,30.03,SW,233,0.0,0.0,92,0.00,,,0.00,0.00,Weather logger V3.0.,2016-07-27 06:04:00,
2016-07-27 02:09:00,73.0,70.7,30.04,SW,233,0.0,0.0,92,0.00,,,0.00,0.00,Weather logger V3.0.,2016-07-27 06:09:00,
2016-07-27 02:14:00,72.9,70.7,30.03,SW,232,0.0,0.0,93,0.00,,,0.00,0.00,Weather logger V3.0.,2016-07-27 06:14:00,
2016-07-27 02:19:00,72.7,70.5,30.03,SSW,192,0.0,0.0,93,0.00,,,0.00,0.00,Weather logger V3.0.,2016-07-27 06:19:00,
2016-07-27 02:24:00,72.5,70.3,30.03,South,190,0.0,0.0,93,0.00,,,0.00,0.00,Weather logger V3.0.,2016-07-27 06:24:00,
2016-07-27 02:29:00,72.5,70.3,30.03,WSW,256,0.0,0.0,93,0.00,,,0.00,0.00,Weather logger V3.0.,2016-07-27 06:29:00,
2016-07-27 02:34:00,72.7,71.2,30.02,SW,215,0.0,0.0,95,0.00,,,0.00,0.00,Weather logger V3.0.,2016-07-27 06:34:00,
2016-07-27 02:39:00,72.7,70.3,30.03,WSW,238,0.0,0.0,92,0.00,,,0.00,0.00,Weather logger V3.0.,2016-07-27 06:39:00,
2016-07-27 02:44:00,72.9,70.5,30.02,WSW,238,0.0,0.0,92,0.00,,,0.00,0.00,Weather logger V3.0.,2016-07-27 06:44:00,
2016-07-27 02:50:00,72.9,70.5,30.03,WSW,238,0.0,0.0,92,0.00,,,0.00,0.00,Weather logger V3.0.,2016-07-27 06:50:00,
2016-07-27 02:55:00,72.9,70.5,30.03,WSW,238,0.0,0.0,92,0.00,,,0.00,0.00,Weather logger V3.0.,2016-07-27 06:55:00,
2016-07-27 03:00:00,72.9,70.5,30.03,WSW,238,0.0,0.0,92,0.00,,,0.00,0.00,Weather logger V3.0.,2016-07-27 07:00:00,
2016-07-27 03:05:00,72.9,70.5,30.02,WSW,238,0.0,0.0,92,0.00,,,0.00,0.00,Weather logger V3.0.,2016-07-27 07:05:00,
2016-07-27 03:10:00,72.9,70.5,30.02,SW,217,0.0,0.0,92,0.00,,,0.00,0.00,Weather logger V3.0.,2016-07-27 07:10:00,
2016-07-27 03:15:00,72.9,70.5,30.02,SW,218,0.0,0.0,92,0.00,,,0.00,0.00,Weather logger V3.0.,2016-07-27 07:15:00,
2016-07-27 03:20:00,72.9,70.5,30.02,SW,218,0.0,0.0,92,0.00,,,0.00,0.00,Weather logger V3.0.,2016-07-27 07:20:00,
2016-07-27 03:25:00,72.9,70.5,30.02,SW,218,0.0,0.0,92,0.00,,,0.00,0.00,Weather logger V3.0.,2016-07-27 07:25:00,
2016-07-27 03:30:00,72.9,70.5,30.02,South,186,0.0,0.0,92,0.00,,,0.00,0.00,Weather logger V3.0.,2016-07-27 07:30:00,
2016-07-27 03:35:00,72.9,70.5,30.02,South,191,0.0,0.0,92,0.00,,,0.00,0.00,Weather logger V3.0.,2016-07-27 07:35:00,
2016-07-27 03:40:00,72.9,70.5,30.02,SW,221,0.0,0.0,92,0.00,,,0.00,0.00,Weather logger V3.0.,2016-07-27 07:40:00,
2016-07-27 03:45:00,72.7,70.5,30.02,South,189,0.0,0.0,93,0.00,,,0.00,0.00,Weather logger V3.0.,2016-07-27 07:45:00,
2016-07-27 03:50:00,72.7,70.5,30.02,SW,224,0.0,0.0,93,0.00,,,0.00,0.00,Weather logger V3.0.,2016-07-27 07:50:00,
2016-07-27 03:55:00,72.7,70.5,30.01,SSW,207,0.0,0.0,93,0.00,,,0.00,0.00,Weather logger V3.0.,2016-07-27 07:55:00,
2016-07-27 04:00:00,72.7,70.5,30.01,SW,229,0.0,0.0,93,0.00,,,0.00,0.00,Weather logger V3.0.,2016-07-27 08:00:00,
2016-07-27 04:06:00,72.7,70.5,30.02,WSW,245,0.0,0.0,93,0.00,,,0.00,0.00,Weather logger V3.0.,2016-07-27 08:06:00,
2016-07-27 04:11:00,72.5,70.3,30.02,WSW,244,0.0,0.0,93,0.00,,,0.00,0.00,Weather logger V3.0.,2016-07-27 08:11:00,
2016-07-27 04:16:00,72.3,70.5,30.02,WSW,245,0.0,0.0,94,0.00,,,0.00,0.00,Weather logger V3.0.,2016-07-27 08:16:00,
2016-07-27 04:21:00,72.0,70.2,30.02,WSW,244,0.0,0.0,94,0.00,,,0.00,0.00,Weather logger V3.0.,2016-07-27 08:21:00,
2016-07-27 04:26:00,71.8,70.0,30.02,WSW,244,0.0,0.0,94,0.00,,,0.00,0.00,Weather logger V3.0.,2016-07-27 08:26:00,
2016-07-27 04:31:00,71.4,70.0,30.02,South,171,0.0,0.0,95,0.00,,,0.00,0.00,Weather logger V3.0.,2016-07-27 08:31:00,
2016-07-27 04:36:00,71.2,69.8,30.02,WSW,240,0.0,0.0,95,0.00,,,0.00,0.00,Weather logger V3.0.,2016-07-27 08:36:00,
2016-07-27 04:41:00,71.1,69.6,30.02,WSW,240,0.0,0.0,95,0.00,,,0.00,0.00,Weather logger V3.0.,2016-07-27 08:41:00,
2016-07-27 04:46:00,70.9,69.4,30.02,WSW,241,0.0,0.0,95,0.00,,,0.00,0.00,Weather logger V3.0.,2016-07-27 08:46:00,
2016-07-27 04:51:00,70.9,69.4,30.02,WSW,241,0.0,0.0,95,0.00,,,0.00,0.00,Weather logger V3.0.,2016-07-27 08:51:00,
2016-07-27 04:56:00,70.9,69.4,30.02,WSW,241,0.0,0.0,95,0.00,,,0.00,0.00,Weather logger V3.0.,2016-07-27 08:56:00,
2016-07-27 05:01:00,70.9,69.8,30.03,WSW,241,0.0,0.0,96,0.00,,,0.00,0.00,Weather logger V3.0.,2016-07-27 09:01:00,
2016-07-27 05:06:00,70.7,69.6,30.03,WSW,241,0.0,0.0,96,0.00,,,0.00,0.00,Weather logger V3.0.,2016-07-27 09:06:00,
2016-07-27 05:11:00,70.7,69.6,30.02,South,187,0.0,0.0,96,0.00,,,0.00,0.00,Weather logger V3.0.,2016-07-27 09:11:00,
2016-07-27 05:16:00,70.7,69.6,30.03,South,174,0.0,0.0,96,0.00,,,0.00,0.00,Weather logger V3.0.,2016-07-27 09:16:00,
2016-07-27 05:17:00,70.7,69.6,30.02,SW,218,0.0,0.0,96,0.00,,,0.00,0.00,Weather logger V3.0.,2016-07-27 09:17:00,
2016-07-27 05:22:00,70.7,69.6,30.02,SW,224,0.0,0.0,96,0.00,,,0.00,0.00,Weather logger V3.0.,2016-07-27 09:22:00,
2016-07-27 05:27:00,70.5,69.1,30.02,SW,233,0.0,0.0,95,0.00,,,0.00,0.00,Weather logger V3.0.,2016-07-27 09:27:00,
2016-07-27 05:32:00,70.5,69.1,30.02,SW,233,0.0,0.0,95,0.00,,,0.00,0.00,Weather logger V3.0.,2016-07-27 09:32:00,
2016-07-27 05:37:00,70.5,69.1,30.02,SW,232,0.0,0.0,95,0.00,,,0.00,0.00,Weather logger V3.0.,2016-07-27 09:37:00,
2016-07-27 05:42:00,70.5,69.4,30.03,SW,232,0.0,0.0,96,0.00,,,0.00,0.00,Weather logger V3.0.,2016-07-27 09:42:00,
2016-07-27 05:47:00,70.5,69.4,30.03,SW,232,0.0,0.0,96,0.00,,,0.00,0.00,Weather logger V3.0.,2016-07-27 09:47:00,
2016-07-27 05:53:00,70.7,69.6,30.03,SW,234,0.0,0.0,96,0.00,,,0.00,0.00,Weather logger V3.0.,2016-07-27 09:53:00,
2016-07-27 05:58:00,70.7,69.6,30.04,SW,234,0.0,0.0,96,0.00,,,0.00,0.00,Weather logger V3.0.,2016-07-27 09:58:00,
2016-07-27 06:03:00,70.9,69.8,30.03,WSW,245,0.0,0.0,96,0.00,,,0.00,0.00,Weather logger V3.0.,2016-07-27 10:03:00,
2016-07-27 06:08:00,71.1,70.0,30.03,WSW,245,0.0,0.0,96,0.00,,,0.00,0.00,Weather logger V3.0.,2016-07-27 10:08:00,
2016-07-27 06:13:00,71.1,70.0,30.03,WSW,245,0.0,0.0,96,0.00,,,0.00,0.00,Weather logger V3.0.,2016-07-27 10:13:00,
2016-07-27 06:18:00,71.1,70.0,30.03,WSW,245,0.0,0.0,96,0.00,,,0.00,0.00,Weather logger V3.0.,2016-07-27 10:18:00,
2016-07-27 06:23:00,71.1,70.0,30.03,WSW,244,0.0,0.0,96,0.00,,,0.00,0.00,Weather logger V3.0.,2016-07-27 10:23:00,
2016-07-27 06:28:00,71.1,70.0,30.03,WSW,244,0.0,0.0,96,0.00,,,0.00,0.00,Weather logger V3.0.,2016-07-27 10:28:00,
2016-07-27 06:33:00,70.9,69.8,30.04,South,189,0.0,0.0,96,0.00,,,0.00,1.41,Weather logger V3.0.,2016-07-27 10:33:00,
2016-07-27 06:38:00,70.9,69.8,30.04,SW,222,0.0,0.0,96,0.00,,,0.00,3.45,Weather logger V3.0.,2016-07-27 10:38:00,
2016-07-27 06:43:00,70.9,69.8,30.04,SW,224,0.0,0.0,96,0.00,,,0.00,5.08,Weather logger V3.0.,2016-07-27 10:43:00,
2016-07-27 06:48:00,70.9,69.8,30.04,SW,224,0.0,0.0,96,0.00,,,0.00,8.38,Weather logger V3.0.,2016-07-27 10:48:00,
2016-07-27 06:53:00,70.9,69.4,30.04,South,188,0.0,0.0,95,0.00,,,0.00,13.55,Weather logger V3.0.,2016-07-27 10:53:00,
2016-07-27 06:58:00,71.1,69.6,30.04,South,188,0.0,0.0,95,0.00,,,0.00,19.93,Weather logger V3.0.,2016-07-27 10:58:00,
2016-07-27 07:03:00,71.1,70.2,30.05,SW,227,0.0,0.0,97,0.00,,,0.00,23.82,Weather logger V3.0.,2016-07-27 11:03:00,
2016-07-27 07:09:00,71.2,70.2,30.04,SW,227,0.0,0.0,96,0.00,,,0.00,28.50,Weather logger V3.0.,2016-07-27 11:09:00,
2016-07-27 07:14:00,71.4,70.3,30.04,SW,216,0.0,0.0,96,0.00,,,0.00,25.41,Weather logger V3.0.,2016-07-27 11:14:00,
2016-07-27 07:19:00,71.6,70.5,30.05,SW,217,0.0,0.0,96,0.00,,,0.00,21.47,Weather logger V3.0.,2016-07-27 11:19:00,
2016-07-27 07:24:00,71.8,70.7,30.05,SW,217,0.0,0.0,96,0.00,,,0.00,22.02,Weather logger V3.0.,2016-07-27 11:24:00,
2016-07-27 07:29:00,72.0,71.1,30.05,SW,217,0.0,0.0,97,0.00,,,0.00,25.66,Weather logger V3.0.,2016-07-27 11:29:00,
2016-07-27 07:34:00,72.1,71.2,30.06,SW,217,0.0,0.0,97,0.00,,,0.00,34.69,Weather logger V3.0.,2016-07-27 11:34:00,
2016-07-27 07:39:00,72.3,71.4,30.06,SW,217,0.0,0.0,97,0.00,,,0.00,51.84,Weather logger V3.0.,2016-07-27 11:39:00,
2016-07-27 07:44:00,72.3,71.4,30.06,SW,217,0.0,0.0,97,0.00,,,0.00,67.49,Weather logger V3.0.,2016-07-27 11:44:00,
2016-07-27 07:49:00,72.5,72.0,30.06,SW,216,0.0,0.0,98,0.00,,,0.00,81.55,Weather logger V3.0.,2016-07-27 11:49:00,
2016-07-27 07:54:00,72.7,72.1,30.06,SW,217,0.0,0.0,98,0.00,,,0.00,90.96,Weather logger V3.0.,2016-07-27 11:54:00,
2016-07-27 07:59:00,72.9,72.3,30.06,WSW,245,0.0,0.0,98,0.00,,,0.00,101.56,Weather logger V3.0.,2016-07-27 11:59:00,
2016-07-27 08:04:00,73.2,72.7,30.07,WSW,245,0.0,0.0,98,0.00,,,0.00,109.36,Weather logger V3.0.,2016-07-27 12:04:00,
2016-07-27 08:09:00,73.6,73.0,30.06,WSW,247,0.0,0.0,98,0.00,,,0.00,125.15,Weather logger V3.0.,2016-07-27 12:09:00,
2016-07-27 08:14:00,73.9,72.5,30.06,WSW,253,0.0,0.0,95,0.00,,,0.00,134.52,Weather logger V3.0.,2016-07-27 12:14:00,
2016-07-27 08:19:00,74.7,71.6,30.06,WSW,258,0.0,0.0,90,0.00,,,0.00,132.63,Weather logger V3.0.,2016-07-27 12:19:00,
2016-07-27 08:25:00,75.6,70.2,30.07,WSW,252,0.0,0.0,83,0.00,,,0.00,134.43,Weather logger V3.0.,2016-07-27 12:25:00,
2016-07-27 08:30:00,76.5,68.7,30.07,WSW,254,0.0,0.0,77,0.00,,,0.00,145.32,Weather logger V3.0.,2016-07-27 12:30:00,
2016-07-27 08:35:00,77.7,67.6,30.06,WSW,241,0.0,0.0,71,0.00,,,0.00,156.40,Weather logger V3.0.,2016-07-27 12:35:00,
2016-07-27 08:40:00,79.0,69.6,30.06,WSW,244,0.0,0.0,73,0.00,,,0.00,165.68,Weather logger V3.0.,2016-07-27 12:40:00,
2016-07-27 08:45:00,80.1,69.4,30.07,SW,230,0.0,0.0,70,0.00,,,0.00,178.97,Weather logger V3.0.,2016-07-27 12:45:00,
2016-07-27 08:50:00,81.1,70.5,30.07,West,259,0.0,0.0,70,0.00,,,0.00,191.19,Weather logger V3.0.,2016-07-27 12:50:00,
2016-07-27 08:55:00,82.0,70.0,30.06,ENE,57,0.0,0.0,67,0.00,,,0.00,204.26,Weather logger V3.0.,2016-07-27 12:55:00,
2016-07-27 09:00:00,82.9,70.5,30.06,West,265,0.0,0.0,66,0.00,,,0.00,217.93,Weather logger V3.0.,2016-07-27 13:00:00,
2016-07-27 09:05:00,83.1,71.6,30.07,West,263,0.0,0.0,68,0.00,,,0.00,235.61,Weather logger V3.0.,2016-07-27 13:05:00,
2016-07-27 09:10:00,83.7,70.2,30.06,WSW,237,0.0,0.0,64,0.00,,,0.00,253.61,Weather logger V3.0.,2016-07-27 13:10:00,
2016-07-27 09:15:00,84.2,68.9,30.06,SW,235,0.0,0.0,60,0.00,,,0.00,272.49,Weather logger V3.0.,2016-07-27 13:15:00,
2016-07-27 09:20:00,84.9,69.6,30.06,West,265,0.4,2.5,60,0.00,,,0.00,288.97,Weather logger V3.0.,2016-07-27 13:20:00,
2016-07-27 09:25:00,85.3,68.9,30.06,NW,324,0.0,0.0,58,0.00,,,0.00,308.60,Weather logger V3.0.,2016-07-27 13:25:00,
2016-07-27 09:30:00,85.8,68.9,30.06,WSW,237,0.0,0.0,57,0.00,,,0.00,327.32,Weather logger V3.0.,2016-07-27 13:30:00,
2016-07-27 09:35:00,86.5,69.1,30.06,West,265,0.0,0.0,56,0.00,,,0.00,353.94,Weather logger V3.0.,2016-07-27 13:35:00,
2016-07-27 09:41:00,87.3,68.2,30.06,West,264,0.0,0.0,53,0.00,,,0.00,370.23,Weather logger V3.0.,2016-07-27 13:41:00,
2016-07-27 09:46:00,87.6,68.9,30.06,West,281,0.0,0.0,54,0.00,,,0.00,391.92,Weather logger V3.0.,2016-07-27 13:46:00,
2016-07-27 09:51:00,88.0,69.3,30.05,WSW,251,0.0,0.0,54,0.00,,,0.00,406.35,Weather logger V3.0.,2016-07-27 13:51:00,
2016-07-27 09:56:00,88.7,68.4,30.05,WSW,257,0.2,2.5,51,0.00,,,0.00,434.38,Weather logger V3.0.,2016-07-27 13:56:00,
2016-07-27 10:01:00,89.2,69.4,30.06,West,279,0.2,2.5,52,0.00,,,0.00,490.04,Weather logger V3.0.,2016-07-27 14:01:00,
2016-07-27 10:06:00,89.8,68.7,30.05,WSW,252,0.0,0.0,50,0.00,,,0.00,342.26,Weather logger V3.0.,2016-07-27 14:06:00,
2016-07-27 10:11:00,90.0,70.0,30.05,NNW,348,0.0,0.0,52,0.00,,,0.00,369.82,Weather logger V3.0.,2016-07-27 14:11:00,
2016-07-27 10:16:00,90.1,70.2,30.05,WSW,252,0.0,0.0,52,0.00,,,0.00,561.52,Weather logger V3.0.,2016-07-27 14:16:00,
2016-07-27 10:21:00,90.5,69.4,30.05,SW,215,0.0,0.0,50,0.00,,,0.00,588.76,Weather logger V3.0.,2016-07-27 14:21:00,
2016-07-27 10:26:00,91.0,67.5,30.04,SW,224,0.0,0.0,46,0.00,,,0.00,578.75,Weather logger V3.0.,2016-07-27 14:26:00,
2016-07-27 10:31:00,91.2,67.6,30.04,West,277,0.0,0.0,46,0.00,,,0.00,687.01,Weather logger V3.0.,2016-07-27 14:31:00,
2016-07-27 10:36:00,91.6,68.0,30.04,West,269,0.9,2.5,46,0.00,,,0.00,697.62,Weather logger V3.0.,2016-07-27 14:36:00,
2016-07-27 10:41:00,92.1,69.1,30.04,West,278,0.4,2.5,47,0.00,,,0.00,539.61,Weather logger V3.0.,2016-07-27 14:41:00,
2016-07-27 10:46:00,92.3,70.5,30.04,West,260,0.2,2.5,49,0.00,,,0.00,374.14,Weather logger V3.0.,2016-07-27 14:46:00,
2016-07-27 10:51:00,91.9,72.5,30.04,WSW,257,0.0,0.0,53,0.00,,,0.00,300.65,Weather logger V3.0.,2016-07-27 14:51:00,
2016-07-27 10:57:00,91.2,72.9,30.04,WSW,252,0.0,0.0,55,0.00,,,0.00,231.41,Weather logger V3.0.,2016-07-27 14:57:00,
2016-07-27 11:02:00,90.1,72.9,30.05,WSW,241,0.0,0.0,57,0.00,,,0.00,201.01,Weather logger V3.0.,2016-07-27 15:02:00,
2016-07-27 11:07:00,89.2,72.5,30.04,West,274,1.8,2.5,58,0.00,,,0.00,230.56,Weather logger V3.0.,2016-07-27 15:07:00,
2016-07-27 11:12:00,88.2,71.1,30.04,SE,140,0.0,0.0,57,0.00,,,0.00,854.96,Weather logger V3.0.,2016-07-27 15:12:00,
2016-07-27 11:17:00,87.8,68.0,30.05,WSW,244,1.1,2.5,52,0.00,,,0.00,975.03,Weather logger V3.0.,2016-07-27 15:17:00,
2016-07-27 11:22:00,88.3,66.2,30.03,WNW,287,0.2,2.5,48,0.00,,,0.00,894.33,Weather logger V3.0.,2016-07-27 15:22:00,
2016-07-27 11:27:00,89.1,66.9,30.04,WSW,238,0.0,0.0,48,0.00,,,0.00,969.03,Weather logger V3.0.,2016-07-27 15:27:00,
2016-07-27 11:32:00,90.0,65.8,30.04,WSW,247,0.0,0.0,45,0.00,,,0.00,962.46,Weather logger V3.0.,2016-07-27 15:32:00,
2016-07-27 11:37:00,91.4,66.6,30.03,West,263,1.1,2.5,44,0.00,,,0.00,1010.01,Weather logger V3.0.,2016-07-27 15:37:00,
2016-07-27 11:42:00,92.8,67.8,30.05,WSW,252,0.0,0.0,44,0.00,,,0.00,833.78,Weather logger V3.0.,2016-07-27 15:42:00,
2016-07-27 11:47:00,93.7,70.0,30.04,WSW,251,0.0,0.0,46,0.00,,,0.00,430.66,Weather logger V3.0.,2016-07-27 15:47:00,
2016-07-27 11:52:00,93.9,71.2,30.04,WNW,292,0.0,0.0,48,0.00,,,0.00,1020.84,Weather logger V3.0.,2016-07-27 15:52:00,
2016-07-27 11:57:00,94.1,71.4,30.04,SW,236,0.2,2.5,48,0.00,,,0.00,521.48,Weather logger V3.0.,2016-07-27 15:57:00,
2016-07-27 12:02:00,93.9,72.5,30.05,NNW,330,0.2,2.5,50,0.00,,,0.00,229.52,Weather logger V3.0.,2016-07-27 16:02:00,
2016-07-27 12:07:00,93.2,73.0,30.05,East,96,0.0,0.0,52,0.00,,,0.00,212.63,Weather logger V3.0.,2016-07-27 16:07:00,
2016-07-27 12:13:00,92.1,72.0,30.05,WSW,242,0.0,0.0,52,0.00,,,0.00,265.64,Weather logger V3.0.,2016-07-27 16:13:00,
2016-07-27 12:18:00,91.2,70.7,30.05,WSW,241,0.0,0.0,51,0.00,,,0.00,269.52,Weather logger V3.0.,2016-07-27 16:18:00,
2016-07-27 12:23:00,90.5,70.0,30.04,West,262,0.2,2.5,51,0.00,,,0.00,1016.51,Weather logger V3.0.,2016-07-27 16:23:00,
2016-07-27 12:28:00,90.3,66.7,30.04,WSW,246,0.0,0.0,46,0.00,,,0.00,1133.89,Weather logger V3.0.,2016-07-27 16:28:00,
2016-07-27 12:33:00,90.3,68.7,30.03,West,270,0.0,0.0,49,0.00,,,0.00,1072.49,Weather logger V3.0.,2016-07-27 16:33:00,
2016-07-27 12:38:00,90.3,68.7,30.04,WSW,245,0.0,0.0,49,0.00,,,0.00,1090.10,Weather logger V3.0.,2016-07-27 16:38:00,
2016-07-27 12:43:00,90.9,68.5,30.04,SE,134,1.8,2.5,48,0.00,,,0.00,338.25,Weather logger V3.0.,2016-07-27 16:43:00,
2016-07-27 12:48:00,90.7,71.2,30.03,West,264,0.9,2.5,53,0.00,,,0.00,615.88,Weather logger V3.0.,2016-07-27 16:48:00,
2016-07-27 12:53:00,90.9,70.3,30.03,WSW,250,2.0,4.9,51,0.00,,,0.00,435.77,Weather logger V3.0.,2016-07-27 16:53:00,
2016-07-27 12:58:00,90.9,66.7,30.04,WSW,250,0.4,2.5,45,0.00,,,0.00,1123.00,Weather logger V3.0.,2016-07-27 16:58:00,
2016-07-27 13:03:00,91.6,64.6,30.03,SW,234,0.0,0.0,41,0.00,,,0.00,1131.81,Weather logger V3.0.,2016-07-27 17:03:00,
2016-07-27 13:08:00,92.7,66.2,30.03,ENE,65,1.8,2.5,42,0.00,,,0.00,1146.24,Weather logger V3.0.,2016-07-27 17:08:00,
2016-07-27 13:13:00,92.8,69.8,30.03,West,265,0.0,0.0,47,0.00,,,0.00,266.93,Weather logger V3.0.,2016-07-27 17:13:00,
2016-07-27 13:18:00,93.4,69.6,30.03,SW,235,0.0,0.0,46,0.00,,,0.00,231.85,Weather logger V3.0.,2016-07-27 17:18:00,
2016-07-27 13:23:00,93.4,72.0,30.03,WSW,250,0.0,0.0,50,0.00,,,0.00,234.63,Weather logger V3.0.,2016-07-27 17:23:00,
2016-07-27 13:29:00,92.7,71.4,30.02,WSW,257,0.0,0.0,50,0.00,,,0.00,312.61,Weather logger V3.0.,2016-07-27 17:29:00,
2016-07-27 13:34:00,91.8,70.0,30.03,West,259,0.0,0.0,49,0.00,,,0.00,400.13,Weather logger V3.0.,2016-07-27 17:34:00,
2016-07-27 13:39:00,90.7,69.6,30.03,WSW,252,0.2,2.5,50,0.00,,,0.00,1114.76,Weather logger V3.0.,2016-07-27 17:39:00,
2016-07-27 13:44:00,90.5,68.7,30.02,WSW,257,0.0,0.0,49,0.00,,,0.00,1158.26,Weather logger V3.0.,2016-07-27 17:44:00,
2016-07-27 13:49:00,90.7,65.1,30.02,WSW,258,0.0,0.0,43,0.00,,,0.00,325.46,Weather logger V3.0.,2016-07-27 17:49:00,
2016-07-27 13:54:00,91.2,69.4,30.02,SSE,158,2.5,4.9,49,0.00,,,0.00,306.84,Weather logger V3.0.,2016-07-27 17:54:00,
2016-07-27 13:59:00,90.9,73.0,30.02,SE,126,2.9,4.9,56,0.00,,,0.00,343.24,Weather logger V3.0.,2016-07-27 17:59:00,
2016-07-27 14:04:00,90.3,71.4,30.03,SE,125,4.9,4.9,54,0.00,,,0.00,255.50,Weather logger V3.0.,2016-07-27 18:04:00,
2016-07-27 14:09:00,89.8,71.1,30.02,ESE,112,4.5,4.9,54,0.00,,,0.00,557.03,Weather logger V3.0.,2016-07-27 18:09:00,
2016-07-27 14:14:00,89.4,70.2,30.02,WSW,250,1.3,2.5,53,0.00,,,0.00,1094.96,Weather logger V3.0.,2016-07-27 18:14:00,
2016-07-27 14:19:00,88.7,68.4,30.02,WSW,240,0.2,2.5,51,0.00,,,0.00,1164.48,Weather logger V3.0.,2016-07-27 18:19:00,
2016-07-27 14:24:00,89.1,62.4,30.02,SW,223,0.0,0.0,41,0.00,,,0.00,405.49,Weather logger V3.0.,2016-07-27 18:24:00,
2016-07-27 14:29:00,90.3,67.5,30.01,WSW,243,0.0,0.0,47,0.00,,,0.00,287.26,Weather logger V3.0.,2016-07-27 18:29:00,
2016-07-27 14:34:00,90.9,69.8,30.02,SW,221,0.0,0.0,50,0.00,,,0.00,264.81,Weather logger V3.0.,2016-07-27 18:34:00,
2016-07-27 14:39:00,91.2,69.4,30.02,SW,235,0.0,0.0,49,0.00,,,0.00,313.05,Weather logger V3.0.,2016-07-27 18:39:00,
2016-07-27 14:45:00,91.4,69.6,30.02,SW,226,0.0,0.0,49,0.00,,,0.00,419.64,Weather logger V3.0.,2016-07-27 18:45:00,
2016-07-27 14:55:00,91.0,64.8,30.01,West,267,0.0,0.0,42,0.00,,,0.00,403.69,Weather logger V3.0.,2016-07-27 18:55:00,
2016-07-27 15:00:00,91.4,63.0,30.01,WSW,240,0.4,2.5,39,0.00,,,0.00,297.93,Weather logger V3.0.,2016-07-27 19:00:00,
2016-07-27 15:05:00,91.9,64.9,30.01,SSW,194,0.0,0.0,41,0.00,,,0.00,1073.21,Weather logger V3.0.,2016-07-27 19:05:00,
2016-07-27 15:10:00,93.0,63.7,30.00,WSW,258,0.0,0.0,38,0.00,,,0.00,468.03,Weather logger V3.0.,2016-07-27 19:10:00,
2016-07-27 15:15:00,93.7,65.1,30.00,SSW,206,0.0,0.0,39,0.00,,,0.00,389.33,Weather logger V3.0.,2016-07-27 19:15:00,
2016-07-27 15:20:00,94.3,65.7,30.00,WSW,249,0.0,0.0,39,0.00,,,0.00,377.49,Weather logger V3.0.,2016-07-27 19:20:00,
2016-07-27 15:25:00,94.1,68.2,30.00,ESE,114,4.0,4.9,43,0.00,,,0.00,234.16,Weather logger V3.0.,2016-07-27 19:25:00,
2016-07-27 15:30:00,93.0,70.5,30.00,West,269,2.7,4.9,48,0.00,,,0.00,268.13,Weather logger V3.0.,2016-07-27 19:30:00,
2016-07-27 15:35:00,92.3,70.5,30.00,West,277,0.4,2.5,49,0.00,,,0.00,240.47,Weather logger V3.0.,2016-07-27 19:35:00,
2016-07-27 15:40:00,91.2,68.2,30.00,WNW,282,0.0,0.0,47,0.00,,,0.00,879.27,Weather logger V3.0.,2016-07-27 19:40:00,
2016-07-27 15:45:00,90.9,64.0,30.00,SSE,147,0.0,0.0,41,0.00,,,0.00,418.56,Weather logger V3.0.,2016-07-27 19:45:00,
2016-07-27 15:50:00,91.4,60.8,30.00,West,270,1.3,2.5,36,0.00,,,0.00,1058.72,Weather logger V3.0.,2016-07-27 19:50:00,
2016-07-27 15:55:00,92.5,59.2,30.00,East,100,0.2,2.5,33,0.00,,,0.00,319.97,Weather logger V3.0.,2016-07-27 19:55:00,
2016-07-27 16:01:00,93.9,60.4,30.00,SW,235,0.0,0.0,33,0.00,,,0.00,316.59,Weather logger V3.0.,2016-07-27 20:01:00,
2016-07-27 16:06:00,95.0,64.8,29.98,WSW,245,0.2,2.5,37,0.00,,,0.00,1013.29,Weather logger V3.0.,2016-07-27 20:06:00,
2016-07-27 16:11:00,96.6,63.7,29.99,ESE,123,0.9,2.5,34,0.00,,,0.00,1032.08,Weather logger V3.0.,2016-07-27 20:11:00,
2016-07-27 16:16:00,97.7,62.1,29.98,North,350,0.2,2.5,31,0.00,,,0.00,1005.05,Weather logger V3.0.,2016-07-27 20:16:00,
2016-07-27 16:21:00,98.1,60.4,29.99,South,186,0.0,0.0,29,0.00,,,0.00,1008.18,Weather logger V3.0.,2016-07-27 20:21:00,
2016-07-27 16:26:00,98.2,63.3,29.98,West,271,0.0,0.0,32,0.00,,,0.00,986.99,Weather logger V3.0.,2016-07-27 20:26:00,
2016-07-27 16:31:00,98.8,63.9,29.99,East,95,1.3,2.5,32,0.00,,,0.00,967.67,Weather logger V3.0.,2016-07-27 20:31:00,
2016-07-27 16:36:00,99.5,62.6,29.98,West,264,2.5,4.9,30,0.00,,,0.00,964.07,Weather logger V3.0.,2016-07-27 20:36:00,
2016-07-27 16:41:00,99.7,63.7,29.98,SE,130,1.3,2.5,31,0.00,,,0.00,943.77,Weather logger V3.0.,2016-07-27 20:41:00,
2016-07-27 16:46:00,99.7,62.8,29.97,SW,235,0.4,2.5,30,0.00,,,0.00,917.66,Weather logger V3.0.,2016-07-27 20:46:00,
2016-07-27 16:51:00,100.0,62.2,29.97,NE,35,0.9,2.5,29,0.00,,,0.00,580.99,Weather logger V3.0.,2016-07-27 20:51:00,
2016-07-27 16:56:00,99.9,62.1,29.97,WSW,247,0.0,0.0,29,0.00,,,0.00,437.88,Weather logger V3.0.,2016-07-27 20:56:00,
2016-07-27 17:01:00,99.5,62.6,29.97,WSW,240,0.0,0.0,30,0.00,,,0.00,878.86,Weather logger V3.0.,2016-07-27 21:01:00,
2016-07-27 17:06:00,99.1,63.3,29.97,South,178,0.4,2.5,31,0.00,,,0.00,243.63,Weather logger V3.0.,2016-07-27 21:06:00,
2016-07-27 17:11:00,98.8,63.0,29.97,South,172,0.2,2.5,31,0.00,,,0.00,855.66,Weather logger V3.0.,2016-07-27 21:11:00,
2016-07-27 17:17:00,98.6,61.0,29.97,SE,133,1.3,2.5,29,0.00,,,0.00,849.79,Weather logger V3.0.,2016-07-27 21:17:00,
2016-07-27 17:22:00,98.2,61.5,29.97,SSE,149,0.0,0.0,30,0.00,,,0.00,834.06,Weather logger V3.0.,2016-07-27 21:22:00,
2016-07-27 17:27:00,97.9,62.2,29.97,South,177,0.0,0.0,31,0.00,,,0.00,828.79,Weather logger V3.0.,2016-07-27 21:27:00,
2016-07-27 17:32:00,97.5,63.7,29.97,West,279,0.0,0.0,33,0.00,,,0.00,723.98,Weather logger V3.0.,2016-07-27 21:32:00,
2016-07-27 17:37:00,97.2,63.3,29.96,SSE,156,0.2,2.5,33,0.00,,,0.00,750.06,Weather logger V3.0.,2016-07-27 21:37:00,
2016-07-27 17:42:00,97.0,63.1,29.97,WSW,258,0.0,0.0,33,0.00,,,0.00,748.03,Weather logger V3.0.,2016-07-27 21:42:00,
2016-07-27 17:47:00,96.4,62.8,29.97,SSW,194,0.0,0.0,33,0.00,,,0.00,710.24,Weather logger V3.0.,2016-07-27 21:47:00,
2016-07-27 17:52:00,96.3,60.8,29.96,SSW,197,0.2,2.5,31,0.00,,,0.00,736.23,Weather logger V3.0.,2016-07-27 21:52:00,
2016-07-27 17:57:00,96.3,61.7,29.96,ESE,111,0.4,2.5,32,0.00,,,0.00,723.57,Weather logger V3.0.,2016-07-27 21:57:00,
2016-07-27 18:02:00,96.4,61.0,29.96,SW,234,1.3,4.9,31,0.00,,,0.00,705.13,Weather logger V3.0.,2016-07-27 22:02:00,
2016-07-27 18:07:00,96.4,62.8,29.95,SE,126,2.0,4.9,33,0.00,,,0.00,691.78,Weather logger V3.0.,2016-07-27 22:07:00,
2016-07-27 18:12:00,96.4,62.8,29.96,ESE,122,1.8,2.5,33,0.00,,,0.00,680.41,Weather logger V3.0.,2016-07-27 22:12:00,
2016-07-27 18:17:00,96.4,62.8,29.96,SW,219,0.0,0.0,33,0.00,,,0.00,671.82,Weather logger V3.0.,2016-07-27 22:17:00,
2016-07-27 18:22:00,96.1,62.4,29.96,SSE,152,1.8,4.9,33,0.00,,,0.00,655.09,Weather logger V3.0.,2016-07-27 22:22:00,
2016-07-27 18:27:00,95.9,62.2,29.96,South,173,0.2,2.5,33,0.00,,,0.00,636.94,Weather logger V3.0.,2016-07-27 22:27:00,
2016-07-27 18:33:00,95.5,61.9,29.96,SSW,208,0.0,0.0,33,0.00,,,0.00,619.79,Weather logger V3.0.,2016-07-27 22:33:00,
2016-07-27 18:38:00,95.4,61.0,29.96,WNW,301,2.7,4.9,32,0.00,,,0.00,604.01,Weather logger V3.0.,2016-07-27 22:38:00,
2016-07-27 18:43:00,95.4,61.7,29.97,West,267,0.2,2.5,33,0.00,,,0.00,588.82,Weather logger V3.0.,2016-07-27 22:43:00,
2016-07-27 18:48:00,95.2,61.7,29.96,South,175,0.0,0.0,33,0.00,,,0.00,575.56,Weather logger V3.0.,2016-07-27 22:48:00,
2016-07-27 18:53:00,95.2,62.4,29.97,SSE,164,0.2,2.5,34,0.00,,,0.00,561.36,Weather logger V3.0.,2016-07-27 22:53:00,
2016-07-27 18:58:00,95.0,62.2,29.97,SSE,153,1.8,4.9,34,0.00,,,0.00,543.68,Weather logger V3.0.,2016-07-27 22:58:00,
2016-07-27 19:03:00,94.8,63.0,29.96,South,190,0.0,0.0,35,0.00,,,0.00,524.74,Weather logger V3.0.,2016-07-27 23:03:00,
2016-07-27 19:08:00,94.6,62.1,29.96,SSE,158,0.0,0.0,34,0.00,,,0.00,190.62,Weather logger V3.0.,2016-07-27 23:08:00,
2016-07-27 19:13:00,94.6,64.4,29.96,SW,236,0.0,0.0,37,0.00,,,0.00,116.75,Weather logger V3.0.,2016-07-27 23:13:00,
2016-07-27 19:18:00,94.1,63.9,29.96,West,261,0.0,0.0,37,0.00,,,0.00,112.23,Weather logger V3.0.,2016-07-27 23:18:00,
2016-07-27 19:23:00,93.6,64.2,29.96,ENE,72,0.0,0.0,38,0.00,,,0.00,106.20,Weather logger V3.0.,2016-07-27 23:23:00,
2016-07-27 19:29:00,92.8,64.4,29.96,WSW,241,0.2,2.5,39,0.00,,,0.00,102.29,Weather logger V3.0.,2016-07-27 23:29:00,
2016-07-27 19:34:00,92.1,64.4,29.96,East,99,0.4,2.5,40,0.00,,,0.00,97.27,Weather logger V3.0.,2016-07-27 23:34:00,
2016-07-27 19:39:00,91.6,63.9,29.95,SW,226,0.0,0.0,40,0.00,,,0.00,90.13,Weather logger V3.0.,2016-07-27 23:39:00,
2016-07-27 19:44:00,91.0,64.2,29.95,WSW,242,0.0,0.0,41,0.00,,,0.00,83.00,Weather logger V3.0.,2016-07-27 23:44:00,
2016-07-27 19:49:00,90.5,64.9,29.96,West,259,0.0,0.0,43,0.00,,,0.00,75.94,Weather logger V3.0.,2016-07-27 23:49:00,
2016-07-27 19:54:00,90.1,65.3,29.95,WSW,242,0.9,2.5,44,0.00,,,0.00,65.23,Weather logger V3.0.,2016-07-27 23:54:00,
2016-07-27 19:59:00,89.6,66.2,29.95,WSW,251,0.9,2.5,46,0.00,,,0.00,49.84,Weather logger V3.0.,2016-07-27 23:59:00,
2016-07-27 20:04:00,89.1,66.9,29.95,WSW,249,0.2,2.5,48,0.00,,,0.00,48.50,Weather logger V3.0.,2016-07-28 00:04:00,
2016-07-27 20:09:00,88.3,66.2,29.95,West,269,0.0,0.0,48,0.00,,,0.00,41.09,Weather logger V3.0.,2016-07-28 00:09:00,
2016-07-27 20:14:00,88.0,65.8,29.95,West,267,0.0,0.0,48,0.00,,,0.00,32.98,Weather logger V3.0.,2016-07-28 00:14:00,
2016-07-27 20:19:00,87.4,66.0,29.96,WNW,282,0.4,2.5,49,0.00,,,0.00,28.33,Weather logger V3.0.,2016-07-28 00:19:00,
2016-07-27 20:24:00,86.9,66.7,29.95,WSW,254,0.0,0.0,51,0.00,,,0.00,23.02,Weather logger V3.0.,2016-07-28 00:24:00,
2016-07-27 20:29:00,86.5,66.9,29.95,West,270,1.1,2.5,52,0.00,,,0.00,17.21,Weather logger V3.0.,2016-07-28 00:29:00,
2016-07-27 20:34:00,86.0,66.4,29.95,WSW,257,0.0,0.0,52,0.00,,,0.00,11.39,Weather logger V3.0.,2016-07-28 00:34:00,
2016-07-27 20:39:00,85.5,66.4,29.95,West,280,0.0,0.0,53,0.00,,,0.00,6.64,Weather logger V3.0.,2016-07-28 00:39:00,
2016-07-27 20:44:00,85.1,67.1,29.94,West,264,0.0,0.0,55,0.00,,,0.00,3.35,Weather logger V3.0.,2016-07-28 00:44:00,
2016-07-27 20:50:00,84.6,67.3,29.95,West,271,0.2,2.5,56,0.00,,,0.00,1.88,Weather logger V3.0.,2016-07-28 00:50:00,
2016-07-27 20:55:00,84.2,67.5,29.95,West,269,0.0,0.0,57,0.00,,,0.00,0.00,Weather logger V3.0.,2016-07-28 00:55:00,
2016-07-27 21:00:00,83.8,67.1,29.95,West,259,0.0,0.0,57,0.00,,,0.00,0.00,Weather logger V3.0.,2016-07-28 01:00:00,